When you browse on this site, cookies collect data to enhance your experience and personalize the content and advertising you see.
Visit our Privacy Policy to learn more. By continuing to use the site, you agree to this use of cookies and data.
  • In Schweiz
  • Länderverzeichnis
  • Für 7 Tage
  • Wassertemperatur
  • Satellitenkarten
  • Wetterkarte
  • Widgets
  • user-avatar
    Anmelden

    Stündliche Wetter Rio Branco

    Heute, 21 November, Mittwoch

    Zeit Temperatur Niederschläge Wind Luftdruck Luftfeuchtigkeit
    00:00 +23°C° 0 mm 0 m/S 745 mmHg 97%
    01:00 +23°C° 0 mm 0 m/S 745 mmHg 98%
    02:00 +23°C° 0 mm 0 m/S 745 mmHg 98%
    03:00 +23°C° 0 mm 0 m/S 745 mmHg 98%
    04:00 +22°C° 0 mm 0 m/S 745 mmHg 98%
    05:00 +23°C° 0.1 mm 0 m/S 746 mmHg 96%
    06:00 +24°C° 0.1 mm 0 m/S 746 mmHg 95%
    07:00 +27°C° 0.1 mm 1 m/S 747 mmHg 93%
    08:00 +28°C° 0.4 mm 1 m/S 747 mmHg 85%
    09:00 +30°C° 0.4 mm 1 m/S 747 mmHg 77%
    10:00 +31°C° 0.4 mm 1 m/S 747 mmHg 69%
    11:00 +32°C° 0.7 mm 1 m/S 746 mmHg 71%
    12:00 +32°C° 0.7 mm 1 m/S 745 mmHg 72%
    13:00 +32°C° 0.7 mm 1 m/S 744 mmHg 73%
    14:00 +32°C° 0.9 mm 1 m/S 743 mmHg 76%
    15:00 +31°C° 0.9 mm 1 m/S 742 mmHg 79%
    16:00 +31°C° 0.9 mm 1 m/S 742 mmHg 82%
    17:00 +30°C° 0.1 mm 1 m/S 742 mmHg 85%
    18:00 +28°C° 0.1 mm 1 m/S 742 mmHg 88%
    19:00 +27°C° 0.1 mm 1 m/S 743 mmHg 91%
    20:00 +27°C° 0 mm 1 m/S 743 mmHg 92%
    21:00 +26°C° 0 mm 1 m/S 744 mmHg 92%
    22:00 +26°C° 0 mm 1 m/S 744 mmHg 93%
    23:00 +26°C° 0 mm 1 m/S 744 mmHg 93%

    Morgen, 22 November, Donnerstag

    Zeit Temperatur Niederschläge Wind Luftdruck Luftfeuchtigkeit
    00:00 +26°C° 0 mm 1 m/S 744 mmHg 94%
    01:00 +25°C° 0 mm 1 m/S 744 mmHg 95%
    02:00 +25°C° 0 mm 1 m/S 744 mmHg 95%
    03:00 +25°C° 0 mm 1 m/S 744 mmHg 95%
    04:00 +23°C° 0 mm 0 m/S 744 mmHg 95%
    05:00 +26°C° 0 mm 1 m/S 744 mmHg 92%
    06:00 +27°C° 0 mm 1 m/S 745 mmHg 89%
    07:00 +27°C° 0 mm 1 m/S 745 mmHg 86%
    08:00 +30°C° 0 mm 1 m/S 745 mmHg 75%
    09:00 +32°C° 0 mm 1 m/S 745 mmHg 65%
    10:00 +34°C° 0 mm 1 m/S 745 mmHg 55%
    11:00 +35°C° 0 mm 1 m/S 744 mmHg 50%
    12:00 +36°C° 0 mm 1 m/S 743 mmHg 45%
    13:00 +37°C° 0 mm 1 m/S 742 mmHg 40%
    14:00 +36°C° 0 mm 1 m/S 741 mmHg 46%
    15:00 +35°C° 0 mm 1 m/S 741 mmHg 52%
    16:00 +32°C° 0 mm 0 m/S 740 mmHg 58%
    17:00 +31°C° 0 mm 0 m/S 741 mmHg 61%
    18:00 +29°C° 0 mm 0 m/S 741 mmHg 64%
    19:00 +30°C° 0 mm 1 m/S 741 mmHg 67%
    20:00 +29°C° 0 mm 1 m/S 742 mmHg 70%
    21:00 +29°C° 0 mm 1 m/S 743 mmHg 72%
    22:00 +28°C° 0 mm 1 m/S 743 mmHg 74%
    23:00 +28°C° 0 mm 1 m/S 743 mmHg 76%

    übermorgen, 23 November, Freitag

    Zeit Temperatur Niederschläge Wind Luftdruck Luftfeuchtigkeit
    00:00 +27°C° 0 mm 1 m/S 742 mmHg 78%
    01:00 +25°C° 0 mm 0 m/S 742 mmHg 79%
    02:00 +24°C° 0.1 mm 0 m/S 742 mmHg 82%
    03:00 +24°C° 0.1 mm 0 m/S 742 mmHg 84%
    04:00 +23°C° 0.1 mm 0 m/S 742 mmHg 86%
    05:00 +24°C° 0.2 mm 0 m/S 742 mmHg 86%
    06:00 +27°C° 0.2 mm 1 m/S 743 mmHg 85%
    07:00 +28°C° 0.2 mm 1 m/S 744 mmHg 84%
    08:00 +30°C° 0.4 mm 1 m/S 744 mmHg 77%
    09:00 +32°C° 0.4 mm 2 m/S 744 mmHg 70%
    10:00 +35°C° 0.4 mm 2 m/S 744 mmHg 62%
    11:00 +36°C° 0 mm 2 m/S 743 mmHg 56%
    12:00 +37°C° 0 mm 2 m/S 742 mmHg 49%
    13:00 +38°C° 0 mm 2 m/S 741 mmHg 43%
    14:00 +37°C° 0 mm 2 m/S 740 mmHg 49%
    15:00 +34°C° 0 mm 1 m/S 740 mmHg 56%
    16:00 +33°C° 0 mm 1 m/S 739 mmHg 62%
    17:00 +32°C° 0.6 mm 1 m/S 740 mmHg 69%
    18:00 +30°C° 0.6 mm 1 m/S 741 mmHg 75%
    19:00 +29°C° 0.6 mm 1 m/S 741 mmHg 81%
    20:00 +28°C° 0.3 mm 1 m/S 742 mmHg 85%
    21:00 +27°C° 0.3 mm 1 m/S 742 mmHg 89%
    22:00 +27°C° 0.3 mm 1 m/S 743 mmHg 92%
    23:00 +26°C° 0 mm 1 m/S 742 mmHg 93%

    24 November, Samstag

    Zeit Temperatur Niederschläge Wind Luftdruck Luftfeuchtigkeit
    00:00 +26°C° 0 mm 1 m/S 742 mmHg 93%
    01:00 +26°C° 0 mm 1 m/S 742 mmHg 94%
    02:00 +26°C° 0 mm 1 m/S 742 mmHg 94%
    03:00 +26°C° 0 mm 1 m/S 742 mmHg 95%
    04:00 +25°C° 0 mm 1 m/S 742 mmHg 96%
    05:00 +26°C° 0.1 mm 1 m/S 743 mmHg 94%
    06:00 +27°C° 0.1 mm 1 m/S 743 mmHg 92%
    07:00 +27°C° 0.1 mm 1 m/S 744 mmHg 90%
    08:00 +28°C° 1.1 mm 1 m/S 744 mmHg 87%
    09:00 +29°C° 1.1 mm 1 m/S 744 mmHg 85%
    10:00 +30°C° 1.1 mm 2 m/S 744 mmHg 83%
    11:00 +30°C° 1.2 mm 2 m/S 744 mmHg 84%
    12:00 +30°C° 1.2 mm 1 m/S 743 mmHg 85%
    13:00 +31°C° 1.2 mm 1 m/S 743 mmHg 86%
    14:00 +30°C° 1.6 mm 1 m/S 742 mmHg 89%
    15:00 +30°C° 1.6 mm 1 m/S 742 mmHg 91%
    16:00 +29°C° 1.6 mm 1 m/S 741 mmHg 94%
    17:00 +26°C° 0.5 mm 0 m/S 742 mmHg 95%
    18:00 +25°C° 0.5 mm 0 m/S 742 mmHg 95%
    19:00 +24°C° 0.5 mm 0 m/S 743 mmHg 96%
    20:00 +24°C° 0 mm 0 m/S 744 mmHg 97%
    21:00 +24°C° 0 mm 0 m/S 744 mmHg 97%
    22:00 +24°C° 0 mm 0 m/S 745 mmHg 97%
    23:00 +24°C° 0.2 mm 0 m/S 744 mmHg 97%

    25 November, Sonntag

    Zeit Temperatur Niederschläge Wind Luftdruck Luftfeuchtigkeit
    00:00 +23°C° 0.2 mm 0 m/S 744 mmHg 98%
    01:00 +23°C° 0.2 mm 0 m/S 743 mmHg 98%
    02:00 +23°C° 0.2 mm 0 m/S 743 mmHg 98%
    03:00 +23°C° 0.2 mm 0 m/S 743 mmHg 98%
    04:00 +23°C° 0.2 mm 0 m/S 743 mmHg 98%
    05:00 +23°C° 0.2 mm 0 m/S 744 mmHg 98%
    06:00 +24°C° 0.2 mm 0 m/S 745 mmHg 97%
    07:00 +24°C° 0.2 mm 0 m/S 745 mmHg 97%
    08:00 +27°C° 0.5 mm 1 m/S 745 mmHg 95%
    09:00 +27°C° 0.5 mm 1 m/S 745 mmHg 93%
    10:00 +28°C° 0.5 mm 1 m/S 745 mmHg 91%
    11:00 +28°C° 0.4 mm 1 m/S 745 mmHg 90%
    12:00 +28°C° 0.4 mm 1 m/S 744 mmHg 89%
    13:00 +29°C° 0.4 mm 1 m/S 743 mmHg 88%
    14:00 +29°C° 0.3 mm 1 m/S 742 mmHg 86%
    15:00 +29°C° 0.3 mm 1 m/S 742 mmHg 85%
    16:00 +29°C° 0.3 mm 1 m/S 741 mmHg 83%
    17:00 +26°C° 0.7 mm 0 m/S 742 mmHg 88%
    18:00 +25°C° 0.7 mm 0 m/S 743 mmHg 92%
    19:00 +24°C° 0.7 mm 0 m/S 743 mmHg 96%
    20:00 +24°C° 0.4 mm 0 m/S 744 mmHg 96%
    21:00 +24°C° 0.4 mm 0 m/S 744 mmHg 95%
    22:00 +23°C° 0.4 mm 0 m/S 744 mmHg 95%
    23:00 +23°C° 0.8 mm 0 m/S 744 mmHg 95%

    26 November, Montag

    Zeit Temperatur Niederschläge Wind Luftdruck Luftfeuchtigkeit
    00:00 +23°C° 0.8 mm 0 m/S 743 mmHg 96%
    01:00 +23°C° 0.8 mm 0 m/S 743 mmHg 96%
    02:00 +23°C° 0.9 mm 0 m/S 743 mmHg 97%
    03:00 +23°C° 0.9 mm 0 m/S 743 mmHg 97%
    04:00 +22°C° 0.9 mm 0 m/S 743 mmHg 98%
    05:00 +23°C° 0.7 mm 0 m/S 744 mmHg 97%
    06:00 +24°C° 0.7 mm 0 m/S 744 mmHg 96%
    07:00 +24°C° 0.7 mm 0 m/S 745 mmHg 95%
    08:00 +26°C° 2.4 mm 1 m/S 745 mmHg 96%
    09:00 +26°C° 2.4 mm 1 m/S 745 mmHg 96%
    10:00 +26°C° 2.4 mm 1 m/S 745 mmHg 97%
    11:00 +26°C° 1.7 mm 1 m/S 744 mmHg 97%
    12:00 +26°C° 1.7 mm 1 m/S 743 mmHg 96%
    13:00 +24°C° 1.7 mm 0 m/S 742 mmHg 96%
    14:00 +25°C° 0 mm 0 m/S 742 mmHg 94%
    15:00 +25°C° 0 mm 0 m/S 741 mmHg 92%
    16:00 +26°C° 0 mm 0 m/S 740 mmHg 89%
    17:00 +27°C° 0 mm 1 m/S 741 mmHg 91%
    18:00 +26°C° 0 mm 1 m/S 741 mmHg 93%
    19:00 +26°C° 0 mm 1 m/S 742 mmHg 95%
    20:00 +26°C° 0 mm 1 m/S 742 mmHg 95%
    21:00 +25°C° 0 mm 1 m/S 743 mmHg 95%
    22:00 +25°C° 0 mm 1 m/S 743 mmHg 95%
    23:00 +25°C° 0 mm 1 m/S 743 mmHg 96%
    Mehr zeigen